Find Starlink 32193

NORAD ID: 60428 Int'l Des: 2024-144 Owner: SPXS Country: US Constellation: starlink operational
LEOCIRCULAR

現在のビュー

3D地球を読み込み中...

About Starlink 32193

Starlink 32193 (NORAD 60428) is a starlink constellation satellite (v2 mini) launched Aug 12, 2024 by SPXS of US. It operates in LEO, CIRCULAR orbit with a mass of 730.00 kg.

Starlink 32193について

説明を読み込み中...

次回通過

Passes for default location (London). Set your location on the main map for personalized predictions.

高度履歴

Loading altitude history...

軌道要素

1 60428U 24144D 26168.83335647 .00052413 00000-0 15513-2 0 9999
2 60428 53.1603 112.0657 0001318 100.5697 141.0499 15.34405935 5904
Epoch: Jun 17, 2026 • Age: 6 hours

現在のステータス

高度 462.6 km
速度 7.64 km/s
衛星直下点 6.01°N, 9.22°W
打ち上げ日 Aug 12, 2024
運用期間 1.8 years
タイプ internet

技術仕様

分類 Payload
質量 730.00 kg
乾燥質量 700.00 kg
総質量 730.00 kg
長さ 0.30 m
直径 4.10 m
スパン 29.00 m
形状 Box + pan
製造者 SPXS
バスタイプ Starlink V2M
フェーズステータス In Orbit
所有者/国 SPXS/US

Most Searched